Wind_Speed
30 29 28 28 27 27 28 29 29 28 28 28 27 26 27 28 29 31 33 35 36 37 37 37 37 37 37 37 37 37 37 38 38 39 40 40 41 41 42 42 42 43 43
31 30 29 29 29 29 29 29 30 30 30 30 29 29 30 31 33 35 36 37 38 39 39 38 38 38 38 38 39 39 40 41 42 43 44 44 45 46 46 47 47 47 48
31 30 30 30 30 30 30 30 31 32 32 32 31 32 33 34 36 38 39 40 41 41 40 40 40 40 40 41 42 43 44 45 46 47 49 49 50 51 51 51 52 52 53
31 30 30 30 30 31 31 31 32 33 34 34 33 34 35 36 38 40 41 42 43 43 42 42 42 43 44 45 47 48 49 50 51 52 54 55 55 56 57 57 57 58 58
32 31 31 31 31 32 32 32 34 35 35 35 35 36 37 38 41 42 43 44 44 44 44 45 46 47 48 50 51 53 54 55 56 57 59 59 60 60 61 61 61 62 62
34 33 32 32 33 33 33 34 35 36 37 37 38 39 40 42 43 44 45 46 46 46 47 49 50 51 52 54 55 57 58 60 61 61 62 63 64 64 65 65 65 65 66
35 34 34 34 35 35 35 37 37 38 38 39 41 42 43 45 46 47 48 48 48 49 51 53 54 55 57 58 60 61 62 63 64 65 65 66 67 68 68 69 69 70 70
36 36 36 36 37 37 38 39 40 40 41 42 43 45 47 48 49 49 50 51 52 53 54 56 58 60 62 63 64 64 65 66 67 68 69 71 71 72 73 74 74 75 75
36 36 37 38 39 40 41 42 42 43 43 44 45 47 48 49 49 49 52 54 55 56 58 60 63 65 66 67 67 68 69 70 71 73 74 75 76 77 78 79 80 81 82
36 37 39 40 41 42 43 43 44 44 45 46 47 48 50 51 51 50 51 53 56 58 61 63 65 67 68 69 71 72 73 74 75 76 77 79 80 82 83 85 86 88 89
37 38 40 41 42 43 43 44 45 46 47 48 49 50 51 52 54 55 54 55 57 59 61 63 65 68 70 71 72 73 74 76 77 79 81 83 85 88 90 92 94 96 98
38 39 40 41 42 43 44 45 46 47 49 50 51 52 53 54 56 58 60 60 60 61 62 64 66 68 70 71 72 74 76 78 80 83 86 89 93 96 99 102 104 107 109
39 40 41 41 42 43 44 46 47 48 50 51 52 53 55 57 59 62 64 65 65 65 67 68 68 69 70 72 74 77 80 84 88 92 95 99 103 106 109 112 114 115 117
39 40 41 42 43 44 45 46 47 49 50 52 53 55 58 60 62 64 66 68 69 69 70 71 72 74 75 78 81 85 89 93 97 101 105 108 110 110 109 106 105 103 103
39 40 42 43 44 44 45 46 48 50 51 53 55 58 60 63 64 66 68 70 72 72 72 72 75 78 81 86 90 95 99 103 107 109 109 107 102 94 88 83 80 79 79
40 41 42 43 43 44 45 47 49 51 53 55 58 61 63 64 66 69 70 71 72 73 73 74 79 83 89 94 99 105 108 109 108 103 97 88 79 72 67 64 61 59 59
40 41 41 42 43 44 46 48 50 52 55 58 60 62 64 66 68 70 70 71 72 75 76 78 84 90 96 102 107 109 107 101 91 82 74 67 60 56 53 51 50 50 50
40 40 41 42 43 45 47 49 52 55 57 60 62 64 66 68 69 69 70 72 75 79 83 85 90 97 102 107 107 101 91 79 70 62 56 52 49 47 47 47 48 47 47
40 40 40 42 44 46 49 51 54 57 59 62 64 66 67 68 69 70 73 76 81 85 90 95 98 103 105 103 94 81 69 61 55 50 47 46 45 44 44 45 45 45 45
39 40 41 43 45 48 51 54 56 59 61 63 65 66 67 68 70 73 77 82 87 92 98 103 105 104 98 86 73 61 52 49 46 45 43 42 42 42 43 44 44 44 44
39 40 42 44 47 50 53 56 58 60 62 64 65 66 67 70 74 79 83 88 94 99 104 106 103 94 79 64 53 47 43 40 40 41 40 40 40 41 42 43 43 43 42
39 41 43 46 49 52 55 57 59 61 62 64 65 67 70 74 79 84 89 95 101 104 104 99 88 73 58 49 43 40 38 36 35 38 38 37 40 40 41 41 39 37 36
39 42 45 48 51 54 56 58 59 61 62 64 67 71 75 79 85 90 95 100 101 99 92 81 67 54 46 42 39 36 35 34 34 37 37 35 37 38 38 37 34 32 30
41 44 47 50 52 54 56 58 59 61 63 67 71 76 80 85 91 96 99 98 93 84 73 62 52 44 41 39 37 36 34 33 33 37 37 35 35 35 35 34 31 28 26
43 46 48 51 53 55 56 58 60 62 66 70 75 80 86 91 96 98 96 89 78 65 55 48 43 40 39 38 38 37 36 35 32 33 36 35 34 32 32 31 27 25 24
44 47 49 51 52 54 56 59 62 65 69 74 80 86 91 95 96 93 84 73 60 50 43 40 39 39 38 38 38 38 37 36 34 31 32 31 31 29 26 27 26 25 24
Wind_Direction
258 259 260 264 268 272 277 280 283 285 288 289 287 285 285 287 290 292 295 296 297 298 298 297 295 292 290 289 287 286 284 282 280 279 277 276 274 273 271 270 268 267 265
260 259 260 263 268 272 275 278 281 284 287 288 287 285 285 287 290 293 295 296 298 298 297 295 293 291 289 287 285 284 282 281 280 279 277 276 274 273 272 271 269 268 266
261 261 261 264 267 271 273 278 282 284 288 288 286 285 286 287 290 293 295 296 296 296 295 293 291 289 287 285 284 282 280 279 278 277 277 276 275 274 272 271 270 268 267
262 261 261 263 267 270 272 278 283 286 289 289 287 286 286 288 290 292 294 294 295 294 293 291 289 287 285 284 282 281 280 279 278 277 276 276 275 274 273 272 271 269 268
260 260 260 263 266 269 273 279 283 286 289 289 289 288 288 289 291 293 293 294 293 292 291 289 287 286 284 283 282 281 280 279 279 278 278 277 276 275 274 273 272 271 269
258 258 260 262 266 270 275 280 283 286 289 290 290 290 291 292 293 293 293 293 292 290 289 288 287 286 286 285 284 283 282 282 281 280 279 278 277 276 275 274 273 271 270
257 257 259 263 267 272 276 279 283 287 289 291 291 292 292 293 294 294 294 293 291 290 290 289 289 288 287 287 286 286 285 284 283 282 281 280 279 277 276 274 273 271 270
258 258 261 265 269 273 276 279 282 286 288 290 291 293 294 294 295 295 294 293 292 292 291 291 291 291 290 290 289 289 288 287 286 284 283 282 281 279 277 276 274 272 270
261 262 264 267 271 274 278 280 283 285 287 289 291 292 293 293 294 294 294 294 294 294 294 294 293 293 293 292 292 291 290 289 288 286 285 284 282 281 279 277 275 273 271
263 265 267 270 272 275 278 281 284 286 288 290 291 292 293 293 293 292 291 292 292 292 293 293 293 293 293 292 292 291 290 289 288 287 286 285 283 281 279 278 276 274 272
264 267 269 271 274 276 279 282 285 287 289 291 292 293 294 294 295 295 294 293 293 292 292 293 293 293 292 292 292 291 290 289 288 287 286 284 283 281 279 278 276 274 273
265 268 270 273 275 278 281 284 286 288 290 292 294 295 295 296 296 296 296 295 295 294 294 294 294 294 294 293 293 292 291 290 289 287 286 284 283 281 279 278 276 274 272
266 269 271 274 277 280 283 285 287 289 291 293 295 296 297 297 298 298 297 297 297 296 296 296 296 295 294 293 293 292 292 291 290 289 288 286 285 283 281 278 276 274 272
267 270 273 276 279 282 284 287 289 291 293 295 296 297 298 299 299 299 298 298 298 298 299 299 299 298 297 297 296 295 295 294 293 292 291 289 287 285 284 281 279 277 274
269 272 275 278 281 283 286 288 290 293 295 297 298 299 300 300 300 299 300 300 301 301 301 301 301 301 300 300 300 299 299 298 297 295 294 292 290 288 286 284 282 279 277
271 274 277 280 282 285 287 290 292 295 297 298 300 300 300 300 301 301 302 303 303 303 303 304 303 303 303 303 302 302 301 300 298 297 295 294 293 291 289 287 285 283 281
274 277 280 282 284 287 290 292 295 297 299 300 300 301 301 302 303 303 304 304 304 304 305 305 305 304 304 304 303 303 302 300 298 297 296 296 294 293 292 290 288 286 283
277 280 282 284 287 289 292 294 296 298 300 301 301 302 303 304 304 305 305 305 305 306 306 306 305 305 305 305 304 303 301 299 299 298 298 297 296 294 293 292 290 288 285
279 281 284 286 289 291 294 296 298 300 301 302 303 304 305 305 306 306 306 306 307 307 306 306 306 306 306 305 304 302 300 299 299 299 298 298 297 297 296 295 293 291 288
280 283 285 288 291 294 296 298 300 302 303 304 305 306 306 306 307 307 307 307 307 307 307 307 308 308 307 305 303 301 300 299 299 298 299 300 300 300 300 300 298 296 293
281 284 287 291 294 296 298 300 302 303 304 305 306 307 307 307 308 308 308 308 308 308 308 309 309 309 307 305 302 301 300 299 299 298 301 303 303 304 303 303 302 300 298
282 287 290 293 296 298 300 302 303 304 305 306 307 307 308 309 309 309 309 309 309 310 310 310 310 309 307 304 303 302 300 299 299 298 301 304 304 305 305 305 304 303 301
286 290 293 296 298 300 302 303 304 306 306 307 308 309 309 309 310 310 310 310 311 311 310 310 309 308 306 304 303 302 303 303 303 301 302 305 305 306 306 307 307 306 304
290 293 295 298 299 301 303 304 305 306 307 308 309 310 310 311 311 311 311 312 312 311 310 309 309 308 306 305 305 304 305 305 306 304 305 307 307 308 309 309 309 307 306
293 295 297 299 301 303 304 305 306 307 309 310 311 311 311 312 311 312 313 313 313 312 310 309 308 308 307 307 307 307 307 307 307 306 306 308 308 310 311 311 310 308 307
295 297 298 301 303 304 305 306 308 309 311 311 312 312 313 313 314 314 315 315 314 312 310 309 309 309 309 310 310 309 308 308 307 307 306 307 307 308 310 311 310 309 308
Height
5802 5803 5803 5802 5802 5801 5800 5799 5798 5796 5794 5792 5790 5789 5787 5785 5783 5781 5779 5776 5774 5772 5769 5767 5765 5762 5761 5759 5757 5756 5754 5753 5752 5750 5749 5748 5748 5747 5747 5746 5746 5746 5746
5797 5797 5797 5796 5796 5795 5794 5792 5791 5790 5788 5786 5784 5783 5780 5778 5776 5774 5771 5769 5766 5764 5761 5759 5757 5754 5753 5751 5749 5747 5746 5744 5742 5740 5739 5738 5737 5736 5736 5735 5735 5735 5735
5790 5791 5790 5790 5789 5788 5787 5786 5785 5783 5781 5779 5778 5776 5774 5771 5769 5766 5763 5760 5758 5755 5753 5750 5748 5746 5744 5742 5740 5738 5736 5734 5732 5730 5728 5726 5725 5724 5723 5722 5722 5722 5722
5784 5784 5784 5783 5782 5781 5780 5779 5778 5776 5774 5772 5770 5768 5766 5764 5761 5758 5755 5752 5749 5746 5744 5741 5739 5737 5734 5732 5729 5727 5725 5723 5720 5718 5716 5714 5712 5711 5709 5708 5708 5707 5707
5778 5777 5777 5776 5775 5774 5773 5772 5771 5769 5766 5764 5762 5760 5758 5755 5752 5749 5746 5743 5739 5736 5734 5731 5729 5726 5723 5721 5718 5715 5712 5709 5707 5704 5702 5700 5698 5696 5694 5693 5692 5691 5691
5771 5771 5770 5769 5769 5768 5766 5765 5763 5761 5759 5756 5754 5751 5748 5745 5743 5739 5736 5733 5730 5726 5723 5720 5717 5715 5711 5708 5704 5701 5698 5695 5692 5689 5686 5684 5682 5680 5678 5676 5675 5674 5673
5763 5763 5763 5763 5762 5761 5759 5758 5756 5754 5751 5748 5745 5742 5739 5736 5732 5729 5726 5722 5719 5715 5711 5708 5704 5701 5698 5694 5690 5686 5682 5679 5675 5672 5669 5666 5664 5662 5660 5658 5656 5655 5654
5756 5756 5756 5755 5754 5753 5751 5750 5748 5746 5743 5740 5737 5733 5729 5727 5722 5718 5714 5710 5706 5703 5698 5694 5689 5685 5682 5678 5674 5670 5666 5661 5657 5653 5650 5647 5644 5641 5639 5637 5636 5634 5633
5749 5748 5748 5747 5746 5745 5743 5741 5739 5737 5734 5731 5727 5724 5720 5717 5713 5709 5703 5698 5693 5689 5684 5679 5674 5669 5664 5660 5656 5652 5647 5643 5638 5634 5630 5626 5622 5619 5616 5614 5612 5610 5608
5741 5741 5740 5739 5738 5736 5734 5732 5730 5727 5724 5721 5718 5714 5710 5706 5703 5701 5697 5690 5684 5678 5672 5666 5660 5654 5648 5643 5638 5633 5628 5623 5618 5613 5609 5604 5600 5595 5592 5588 5585 5582 5580
5734 5733 5732 5730 5729 5727 5725 5723 5720 5717 5713 5710 5706 5702 5699 5694 5689 5686 5684 5679 5673 5667 5660 5653 5646 5639 5632 5626 5621 5615 5609 5604 5598 5592 5587 5581 5575 5570 5565 5560 5555 5552 5549
5726 5725 5723 5722 5720 5718 5716 5713 5710 5706 5703 5699 5695 5690 5686 5682 5677 5672 5668 5664 5659 5653 5646 5639 5631 5622 5614 5607 5601 5595 5589 5583 5576 5569 5562 5555 5547 5540 5533 5527 5521 5516 5512
5718 5716 5715 5713 5711 5709 5706 5703 5700 5696 5692 5688 5683 5678 5673 5668 5663 5657 5651 5646 5641 5636 5628 5621 5613 5605 5596 5589 5582 5574 5567 5559 5550 5541 5532 5522 5513 5504 5495 5487 5480 5475 5469
5709 5708 5706 5704 5701 5699 5696 5693 5689 5685 5680 5676 5671 5666 5660 5655 5648 5642 5635 5629 5624 5619 5610 5601 5591 5582 5573 5565 5557 5548 5540 5530 5519 5507 5496 5484 5472 5461 5451 5442 5435 5429 5423
5701 5699 5697 5694 5692 5689 5686 5682 5678 5673 5669 5664 5658 5653 5647 5640 5633 5626 5619 5611 5604 5598 5593 5583 5571 5560 5549 5539 5528 5517 5507 5495 5482 5468 5455 5443 5431 5421 5412 5405 5398 5392 5387
5692 5690 5688 5685 5682 5679 5676 5672 5667 5662 5657 5652 5646 5639 5633 5626 5618 5610 5603 5594 5585 5577 5571 5564 5550 5538 5525 5513 5499 5486 5473 5459 5445 5431 5418 5407 5399 5391 5384 5378 5372 5367 5362
5683 5681 5678 5676 5673 5669 5665 5661 5656 5651 5645 5639 5633 5626 5618 5610 5602 5594 5585 5576 5567 5558 5551 5545 5530 5517 5501 5486 5471 5455 5439 5424 5412 5401 5391 5383 5377 5371 5364 5359 5354 5349 5344
5675 5672 5669 5666 5663 5659 5655 5650 5645 5640 5633 5626 5619 5611 5603 5595 5586 5577 5567 5558 5548 5538 5528 5521 5511 5494 5477 5458 5442 5426 5410 5397 5388 5381 5373 5367 5361 5355 5350 5345 5339 5334 5329
5666 5663 5660 5657 5653 5649 5644 5639 5634 5627 5620 5613 5605 5596 5587 5578 5569 5559 5550 5539 5529 5517 5505 5494 5485 5469 5451 5430 5414 5401 5389 5378 5371 5365 5359 5354 5348 5342 5336 5330 5325 5319 5314
5657 5654 5651 5647 5643 5638 5633 5628 5621 5614 5606 5598 5589 5581 5571 5562 5552 5542 5532 5520 5508 5495 5481 5467 5454 5440 5423 5405 5391 5382 5375 5366 5359 5352 5347 5342 5336 5330 5324 5317 5311 5305 5299
5648 5645 5641 5637 5633 5628 5622 5616 5609 5601 5592 5584 5575 5565 5556 5546 5535 5524 5512 5499 5485 5470 5454 5439 5424 5410 5396 5385 5376 5368 5362 5356 5349 5341 5337 5331 5325 5319 5312 5305 5298 5292 5285
5639 5636 5632 5627 5622 5616 5610 5603 5595 5587 5578 5569 5560 5551 5541 5531 5519 5507 5493 5477 5460 5442 5426 5411 5398 5385 5377 5369 5363 5356 5350 5346 5341 5333 5327 5323 5314 5308 5301 5295 5288 5281 5274
5630 5627 5622 5617 5611 5604 5597 5590 5582 5573 5564 5555 5545 5536 5526 5514 5501 5488 5473 5456 5437 5417 5400 5387 5378 5370 5363 5357 5352 5347 5341 5335 5329 5322 5317 5314 5306 5298 5291 5284 5278 5272 5266
5621 5617 5612 5606 5599 5592 5585 5577 5569 5560 5551 5541 5530 5519 5508 5494 5479 5465 5451 5434 5415 5397 5383 5372 5364 5358 5352 5346 5341 5336 5331 5327 5321 5313 5306 5302 5296 5289 5282 5275 5270 5264 5259
5612 5607 5601 5594 5587 5580 5572 5564 5555 5547 5538 5527 5515 5502 5488 5474 5459 5443 5427 5411 5395 5380 5368 5360 5354 5348 5342 5336 5331 5326 5321 5316 5312 5306 5298 5292 5286 5281 5274 5268 5262 5257 5252
5601 5596 5590 5583 5576 5568 5560 5551 5542 5534 5525 5513 5499 5484 5468 5452 5435 5417 5403 5390 5379 5368 5359 5352 5345 5339 5333 5328 5321 5316 5310 5306 5301 5297 5291 5285 5278 5272 5268 5262 5256 5251 5246